Weather History for MMLP - April, 2013

Change the Weather History Date:

Tuesday, April 23, 2013

  Actual Average Record
Temperature  
Mean Temperature 78 °F -  
Max Temperature 95 °F 90 °F 100 °F (2012)
Min Temperature 61 °F 59 °F 53 °F (2006)
Cooling Degree Days 13    
Growing Degree Days 28 (Base 50)    
Moisture  
Dew Point 34 °F    
Average Humidity 30    
Maximum Humidity 82    
Minimum Humidity 4    
Precipitation  
Precipitation 0.00 in - - ()
Sea Level Pressure  
Sea Level Pressure 29.90 in    
Wind  
Wind Speed 7 mph ()    
Max Wind Speed 14 mph    
Max Gust Speed -    
Visibility 10.4 miles    
Events      
Averages and records for this station are not official NWS values.
T = Trace of Precipitation, MM = Missing Value Source: Averaged Metar Reports

Daily Weather History Graph

Daily Weather History Graph

Search for Another Location

Airport or City:

Trip Planner

Search our weather history database for the weather conditions in past years. The results will help you decide how hot, cold, wet, or windy it might be!

Date:

Astronomy

Apr. 23, 2013 Rise Set
Actual Time 6:52 AM MDT 7:46 PM MDT
Civil Twilight 6:29 AM MDT 8:10 PM MDT
Nautical Twilight 6:01 AM MDT 8:38 PM MDT
Astronomical Twilight 5:33 AM MDT 9:06 PM MDT
Moon 5:55 PM MDT (4/23) 5:08 AM MDT (4/23)
Length of Visible Light 13h 40m
Length of Day
12h 53m
Waxing Gibbous, 94% of the Moon is Illuminated
Apr 23
Waxing Gibbous
Apr 25
Full
May 2
Last Quarter
May 9
New
May 17
First Quarter

Hourly Weather History & Observations

Time (MDT) Temp. Dew Point Humidity Pressure Visibility Wind Dir Wind Speed Gust Speed Precip Events Conditions
2:45 AM 65 °F 49 °F 45% 29.88 in 2 mi South 6.7 mph - -   Scattered Clouds
5:50 AM 63 °F 40 °F 31% 29.88 in 2 mi South 4.5 mph - -  
6:10 AM 53.6 °F 48.2 °F 82% 29.94 in 10.0 mi South 11.5 mph - N/A   Partly Cloudy
6:42 AM 53.6 °F 48.2 °F 82% 29.89 in 10.0 mi South 10.4 mph - N/A   Partly Cloudy
7:44 AM 57.2 °F 48.2 °F 72% 29.91 in 10.0 mi SSE 9.2 mph - N/A   Clear
8:40 AM 64.4 °F 42.8 °F 45% 29.97 in 10.0 mi South 11.5 mph - N/A   Clear
8:50 AM 75 °F 39 °F 17% 29.93 in 16 mi South 4.5 mph - -  
9:48 AM 64.4 °F 42.8 °F 45% 29.92 in 10.0 mi SSE 8.1 mph - N/A   Clear
10:42 AM 80.6 °F 19.4 °F 10% 29.92 in 12.0 mi South 4.6 mph - N/A   Clear
11:50 AM 89 °F 30 °F 6% 29.91 in 19 mi South 4.5 mph - -  
11:58 AM 84.2 °F 12.2 °F 7% 29.96 in 12.0 mi South 5.8 mph - N/A   Clear
12:40 PM 86.0 °F 12.2 °F 6% 29.90 in 12.0 mi SSW 5.8 mph - N/A   Clear
1:42 PM 89.6 °F 10.4 °F 5% 29.88 in 12.0 mi SSW 9.2 mph - N/A   Clear
2:46 PM 89.6 °F 17.6 °F 7% 29.96 in 10.0 mi WSW 9.2 mph - N/A   Clear
2:50 PM 95 °F 29 °F 4% 29.86 in 19 mi WSW 6.7 mph - -  
3:41 PM 89.6 °F 17.6 °F 7% 29.85 in 10.0 mi South 11.5 mph - N/A   Clear
4:41 PM 89.6 °F 21.2 °F 8% 29.83 in 10.0 mi South 5.8 mph - N/A   Clear
5:48 PM 87.8 °F 23.0 °F 9% 29.96 in 10.0 mi WSW 6.9 mph - N/A   Clear
5:50 PM 95 °F 35 °F 6% 29.83 in 19 mi WSW 6.7 mph - -   Clear
7:02 PM 82.4 °F 24.8 °F 12% 29.85 in 10.0 mi SW 11.5 mph - N/A   Clear
7:42 PM 78.8 °F 35.6 °F 21% 29.86 in 10.0 mi South 6.9 mph - N/A   Clear
8:50 PM 75 °F 53 °F 35% 29.88 in 2 mi South 11.2 mph - -  
9:47 PM 68.0 °F 51.8 °F 56% 29.92 in 10.0 mi SSW 9.2 mph - N/A   Clear
10:40 PM 64.4 °F 53.6 °F 68% 29.92 in 10.0 mi South 13.8 mph - N/A   Clear
11:45 PM 65 °F 55 °F 63% 29.90 in 2 mi South 8.9 mph - -